| time (UTC) | temp F | wind direction | speed MPH | gust MPH | rain 1hr in | rain 24hr in | rain mn in | humidity % | barometer mb |
| 20260505070002 | 57 | 343 | 2.0 | 7.0 | 0.00 | 0.00 | 0.00 | 56 | 1013.6 |
| 20260505064457 | 57 | 186 | 1.0 | 6.0 | 0.00 | 0.00 | 0.00 | 56 | 1013.7 |
| 20260505062957 | 57 | 272 | 1.0 | 4.0 | 0.00 | 0.00 | 0.00 | 56 | 1013.7 |
| 20260505061457 | 58 | 231 | 2.0 | 5.0 | 0.00 | 0.00 | 0.00 | 55 | 1013.8 |
| 20260505060000 | 58 | 309 | 1.0 | 4.0 | 0.00 | 0.00 | 0.00 | 55 | 1013.8 |
| 20260505054457 | 58 | 1 | 1.0 | 5.0 | 0.00 | 0.00 | 0.00 | 54 | 1013.8 |
| 20260505053008 | 58 | 80 | 1.0 | 4.0 | 0.00 | 0.00 | 0.00 | 53 | 1013.9 |
| 20260505051505 | 58 | 89 | 1.0 | 5.0 | 0.00 | 0.00 | 0.00 | 53 | 1013.9 |
| 20260505041457 | 59 | 267 | 1.0 | 6.0 | 0.00 | 0.00 | 0.00 | 50 | 1013.8 |
| 20260505035959 | 59 | 83 | 1.0 | 6.0 | 0.00 | 0.00 | 0.00 | 50 | 1013.9 |
| 20260505034458 | 59 | 345 | 1.0 | 7.0 | 0.00 | 0.00 | 0.00 | 51 | 1013.8 |
| 20260505033000 | 60 | 119 | 1.0 | 6.0 | 0.00 | 0.00 | 0.00 | 52 | 1014.1 |
| 20260505031501 | 60 | 293 | 2.0 | 6.0 | 0.00 | 0.00 | 0.00 | 52 | 1013.9 |
| 20260505023001 | 60 | 360 | 1.0 | 5.0 | 0.00 | 0.00 | 0.00 | 54 | 1014.3 |
| 20260505021459 | 60 | 333 | 1.0 | 6.0 | 0.00 | 0.00 | 0.00 | 55 | 1014.3 |
| 20260505020002 | 60 | 44 | 1.0 | 6.0 | 0.00 | 0.00 | 0.00 | 56 | 1014.5 |
| 20260505014458 | 60 | 44 | 0.0 | 4.0 | 0.00 | 0.00 | 0.00 | 57 | 1014.5 |
| 20260505013001 | 61 | 250 | 1.0 | 3.0 | 0.00 | 0.00 | 0.00 | 57 | 1014.4 |
| 20260505011459 | 61 | 122 | 0.0 | 3.0 | 0.00 | 0.00 | 0.00 | 57 | 1014.3 |
| 20260505005959 | 61 | 162 | 0.0 | 4.0 | 0.00 | 0.00 | 0.00 | 57 | 1014.1 |
| 20260505003002 | 62 | 233 | 0.0 | 3.0 | 0.00 | 0.00 | 0.00 | 57 | 1013.7 |
| 20260505000003 | 65 | 352 | 0.0 | 1.0 | 0.00 | 0.00 | 0.00 | 54 | 1013.7 |
| 20260504234502 | 66 | 18 | 0.0 | 2.0 | 0.00 | 0.00 | 0.00 | 49 | 1013.7 |
| 20260504233007 | 67 | 235 | 0.0 | 4.0 | 0.00 | 0.00 | 0.00 | 48 | 1013.6 |
| 20260504231458 | 67 | 248 | 0.0 | 3.0 | 0.00 | 0.00 | 0.00 | 47 | 1013.6 |
| 20260504230009 | 67 | 193 | 0.0 | 3.0 | 0.00 | 0.00 | 0.00 | 46 | 1013.5 |
| 20260504224458 | 68 | 33 | 0.0 | 4.0 | 0.00 | 0.00 | 0.00 | 45 | 1013.7 |
| 20260504223005 | 68 | 23 | 0.0 | 2.0 | 0.00 | 0.00 | 0.00 | 45 | 1013.6 |
| 20260504220000 | 71 | 29 | 0.0 | 7.0 | 0.00 | 0.00 | 0.00 | 43 | 1013.8 |
| 20260504213007 | 71 | 225 | 0.0 | 2.0 | 0.00 | 0.00 | 0.00 | 44 | 1014.0 |
| 20260504210003 | 71 | 43 | 0.0 | 2.0 | 0.00 | 0.00 | 0.00 | 45 | 1013.7 |
| 20260504204501 | 69 | 274 | 0.0 | 1.0 | 0.00 | 0.00 | 0.00 | 49 | 1013.8 |
| 20260504203002 | 67 | 34 | 0.0 | 2.0 | 0.00 | 0.00 | 0.00 | 50 | 1013.8 |
| 20260504201500 | 67 | 253 | 0.0 | 3.0 | 0.00 | 0.00 | 0.00 | 50 | 1013.9 |
| 20260504200001 | 69 | 231 | 0.0 | 2.0 | 0.00 | 0.00 | 0.00 | 48 | 1014.0 |
| 20260504194459 | 68 | 255 | 0.0 | 2.0 | 0.00 | 0.00 | 0.00 | 51 | 1014.2 |
| 20260504193002 | 68 | 345 | 0.0 | 3.0 | 0.00 | 0.00 | 0.00 | 52 | 1014.5 |
| 20260504191503 | 67 | 28 | 0.0 | 2.0 | 0.00 | 0.00 | 0.00 | 50 | 1014.5 |
| 20260504190003 | 66 | 90 | 0.0 | 1.0 | 0.00 | 0.00 | 0.00 | 51 | 1014.6 |
| 20260504184501 | 65 | 10 | 0.0 | 2.0 | 0.00 | 0.00 | 0.00 | 53 | 1014.6 |
| 20260504183004 | 64 | 90 | 0.0 | 5.0 | 0.00 | 0.00 | 0.00 | 55 | 1014.9 |
| 20260504181501 | 64 | 335 | 0.0 | 1.0 | 0.00 | 0.00 | 0.00 | 53 | 1015.4 |
| 20260504180005 | 63 | 13 | 0.0 | 1.0 | 0.00 | 0.00 | 0.00 | 54 | 1015.3 |
| 20260504174503 | 64 | 264 | 0.0 | 3.0 | 0.00 | 0.00 | 0.00 | 50 | 1015.6 |
| 20260504173003 | 66 | 213 | 0.0 | 4.0 | 0.00 | 0.00 | 0.00 | 48 | 1015.5 |
| 20260504171500 | 67 | 41 | 0.0 | 3.0 | 0.00 | 0.00 | 0.00 | 48 | 1015.4 |